Location: Buckeye Ditch
(40.9104°N, 122.9517°W)
Time: 06:06:52
(UTC+00:00)

Cosmos 494 Rocket - Visible Passes

Search period start: 13 July 2024 00:00
Search period end: 23 July 2024 00:00
Orbit: 739 x 769 km, 74.1° (Epoch: 12 July)

Date Brightness Start Highest point End Pass type
(mag) Time Alt. Az. Time Alt. Az. Time Alt. Az.
13 Jul 4.5 05:03:02 10° N 05:08:07 47° ENE 05:11:24 21° SE visible
13 Jul 5.8 06:45:39 10° NW 06:49:29 21° W 06:51:22 17° SW visible
14 Jul 5.3 04:22:12 10° N 04:26:37 26° ENE 04:30:59 10° ESE visible
14 Jul 5.0 06:03:37 10° NW 06:08:28 39° WSW 06:11:01 24° SSW visible
15 Jul 4.1 05:22:04 10° NNW 05:27:19 74° WSW 05:30:41 22° S visible
16 Jul 4.2 04:40:50 10° NNW 04:46:02 59° ENE 04:50:24 14° SE visible
16 Jul 6.3 06:24:05 10° WNW 06:27:13 16° W 06:30:19 10° SW visible
17 Jul 5.5 05:41:43 10° NW 05:46:15 30° W 05:50:09 13° SSW visible
18 Jul 4.5 05:00:00 10° NNW 05:05:09 58° WSW 05:09:57 12° S visible
19 Jul 4.0 04:18:38 10° NNW 04:23:55 76° ENE 04:29:07 10° SSE visible
19 Jul 6.5 06:02:52 10° WNW 06:04:55 12° W 06:06:56 10° WSW visible
20 Jul 6.0 05:19:53 10° NW 05:24:00 24° W 05:28:05 10° SSW visible
21 Jul 5.0 04:37:58 10° NNW 04:42:57 45° WSW 04:47:52 10° S visible
